Temp
-6 -5 -5 -6 -6 -6 -5 -5 -5 -6 -5 -5 -5 -4 -5 -5 -5 -5 -6 -6 -5 -6 -5 -5 -5 -5 -6 -6 -7 -7 -7 -6 -7 -7 -7 -7 -7 -7 -7 -8 -8 -8 -8 -8 -8 -8 -9 -9 -9
-6 -5 -5 -5 -7 -7 -6 -6 -6 -6 -6 -5 -5 -5 -5 -5 -6 -6 -6 -6 -6 -5 -5 -5 -5 -5 -6 -6 -6 -6 -6 -7 -7 -7 -7 -7 -7 -7 -7 -8 -8 -8 -8 -8 -8 -9 -9 -9 -9
-6 -5 -5 -5 -6 -7 -6 -6 -6 -6 -6 -6 -5 -6 -6 -7 -6 -7 -6 -6 -6 -5 -5 -6 -6 -6 -6 -6 -6 -7 -7 -7 -7 -7 -8 -8 -8 -8 -8 -8 -9 -9 -9 -8 -8 -9 -9 -9 -9
-6 -6 -6 -6 -6 -6 -6 -6 -6 -6 -6 -7 -6 -6 -6 -6 -6 -7 -6 -6 -6 -5 -6 -6 -6 -6 -6 -6 -7 -7 -7 -8 -8 -8 -8 -9 -9 -9 -9 -9 -9 -9 -9 -9 -9 -9 -9 -9 -9
-7 -7 -7 -6 -6 -6 -5 -5 -6 -6 -6 -7 -7 -7 -6 -6 -6 -7 -7 -6 -6 -6 -6 -6 -6 -6 -6 -7 -7 -8 -8 -8 -8 -9 -9 -9 -9 -9 -9 -9 -9 -9 -9 -9 -9 -9 -9 -9 -9
-8 -8 -9 -8 -6 -6 -6 -6 -6 -6 -6 -6 -7 -7 -7 -7 -6 -6 -6 -6 -6 -6 -6 -6 -6 -7 -7 -7 -8 -8 -8 -8 -8 -9 -9 -9 -9 -9 -9 -9 -9 -9 -9 -9 -9 -9 -9 -9 -9
-8 -9 -9 -9 -6 -6 -6 -6 -6 -6 -7 -7 -6 -6 -7 -7 -6 -6 -6 -6 -6 -6 -6 -7 -7 -7 -7 -8 -8 -8 -8 -8 -9 -9 -9 -9 -9 -9 -9 -9 -9 -9 -9 -9 -9 -9 -9 -9 -9
-9 -9 -9 -9 -9 -6 -6 -6 -6 -6 -6 -7 -7 -6 -7 -7 -7 -7 -6 -7 -7 -7 -7 -7 -7 -7 -7 -8 -8 -8 -8 -8 -9 -9 -8 -8 -8 -9 -9 -9 -9 -9 -9 -9 -9 -9 -9 -9 -9
-8 -9 -9 -9 -9 -6 -6 -6 -6 -6 -6 -6 -7 -7 -6 -7 -8 -8 -7 -7 -7 -7 -7 -7 -7 -7 -7 -8 -8 -8 -8 -8 -8 -8 -8 -8 -8 -8 -8 -8 -8 -8 -8 -8 -8 -8 -8 -8 -8
-7 -8 -9 -8 -8 -6 -6 -6 -6 -6 -6 -6 -7 -7 -7 -7 -8 -8 -8 -8 -7 -7 -7 -7 -7 -7 -7 -8 -8 -8 -8 -8 -8 -7 -7 -7 -8 -8 -8 -7 -8 -7 -7 -7 -7 -8 -8 -8 -8
-7 -8 -8 -7 -7 -7 -6 -6 -6 -6 -6 -6 -7 -7 -7 -7 -8 -8 -8 -8 -7 -7 -7 -7 -7 -7 -7 -7 -7 -7 -7 -7 -7 -7 -7 -7 -7 -7 -7 -7 -7 -7 -7 -7 -7 -7 -7 -8 -8
-7 -7 -7 -7 -6 -6 -6 -6 -6 -6 -6 -6 -7 -7 -7 -8 -8 -8 -8 -8 -8 -7 -7 -7 -7 -7 -7 -7 -7 -7 -7 -7 -7 -7 -7 -7 -7 -7 -7 -7 -7 -7 -7 -7 -7 -7 -7 -7 -7
-7 -7 -7 -7 -6 -6 -6 -6 -6 -6 -6 -6 -6 -7 -7 -7 -8 -7 -7 -7 -7 -7 -7 -7 -7 -7 -7 -7 -7 -7 -7 -7 -7 -7 -7 -7 -7 -7 -7 -7 -7 -7 -7 -7 -7 -7 -7 -7 -7
-7 -7 -7 -6 -6 -6 -6 -6 -6 -6 -6 -6 -6 -6 -7 -7 -7 -8 -8 -8 -7 -7 -6 -6 -6 -7 -7 -7 -7 -7 -7 -7 -7 -7 -7 -7 -7 -7 -7 -7 -7 -7 -7 -7 -7 -7 -7 -7 -7
-7 -7 -7 -6 -6 -6 -6 -7 -6 -6 -7 -6 -6 -6 -7 -7 -7 -7 -7 -7 -6 -6 -6 -6 -6 -6 -6 -6 -7 -6 -7 -7 -7 -7 -7 -7 -7 -7 -7 -7 -7 -7 -7 -7 -7 -7 -7 -7 -7
-7 -7 -8 -6 -7 -7 -6 -8 -7 -6 -6 -6 -6 -6 -6 -6 -6 -6 -6 -6 -6 -6 -6 -6 -6 -6 -6 -6 -6 -7 -7 -7 -7 -7 -7 -7 -7 -7 -7 -7 -7 -7 -7 -7 -7 -7 -7 -7 -8
-7 -8 -8 -7 -6 -7 -7 -8 -7 -7 -7 -6 -6 -6 -6 -6 -6 -6 -6 -6 -6 -6 -6 -6 -6 -6 -6 -6 -6 -6 -7 -7 -7 -7 -7 -7 -7 -7 -7 -7 -7 -7 -7 -7 -7 -7 -7 -7 -7
-8 -7 -8 -8 -7 -7 -7 -7 -7 -6 -7 -7 -6 -6 -6 -6 -6 -6 -6 -6 -6 -6 -6 -6 -6 -5 -6 -6 -7 -7 -7 -7 -7 -7 -7 -7 -7 -7 -7 -7 -7 -7 -7 -7 -7 -7 -7 -7 -8
-8 -8 -8 -8 -8 -8 -8 -7 -7 -6 -6 -6 -6 -6 -6 -6 -6 -6 -6 -6 -6 -6 -6 -6 -6 -6 -6 -6 -6 -7 -7 -7 -7 -7 -7 -7 -7 -7 -7 -7 -7 -7 -7 -7 -7 -7 -7 -8 -8
-8 -8 -8 -8 -8 -8 -8 -8 -7 -7 -6 -6 -6 -7 -6 -6 -6 -6 -6 -6 -6 -6 -6 -6 -6 -6 -6 -6 -6 -7 -7 -7 -7 -7 -7 -7 -7 -7 -7 -7 -7 -7 -7 -7 -7 -7 -7 -8 -8
-7 -8 -8 -7 -8 -8 -8 -8 -7 -7 -7 -7 -7 -7 -7 -6 -6 -6 -6 -6 -5 -5 -6 -6 -6 -6 -6 -6 -6 -7 -6 -7 -7 -7 -7 -7 -7 -7 -7 -7 -7 -7 -7 -7 -7 -7 -7 -8 -8
-7 -7 -8 -8 -8 -8 -8 -7 -8 -8 -7 -6 -7 -7 -7 -7 -7 -6 -6 -6 -6 -6 -6 -6 -6 -6 -6 -6 -7 -7 -6 -7 -7 -7 -7 -7 -7 -7 -7 -7 -7 -7 -7 -7 -7 -7 -7 -8 -8
-5 -8 -7 -8 -8 -8 -8 -8 -7 -7 -7 -7 -7 -7 -7 -8 -7 -7 -7 -7 -7 -6 -6 -6 -6 -6 -7 -7 -7 -6 -6 -7 -7 -7 -7 -7 -7 -8 -7 -7 -7 -7 -7 -7 -7 -7 -7 -7 -8
-6 -9 -9 -8 -8 -8 -7 -8 -7 -7 -6 -7 -8 -8 -8 -8 -8 -8 -7 -7 -7 -7 -6 -6 -7 -6 -6 -7 -7 -7 -7 -7 -7 -7 -7 -7 -7 -7 -8 -7 -8 -8 -7 -7 -8 -7 -7 -7 -8
-7 -8 -9 -9 -8 -8 -8 -8 -7 -8 -7 -7 -8 -8 -8 -8 -8 -8 -8 -7 -7 -7 -6 -6 -6 -6 -7 -7 -7 -7 -7 -7 -7 -7 -7 -7 -7 -8 -8 -8 -8 -8 -8 -8 -8 -8 -8 -8 -8
-6 -7 -8 -8 -8 -8 -8 -8 -6 -6 -7 -7 -7 -8 -7 -8 -7 -7 -7 -8 -7 -7 -7 -7 -7 -7 -7 -7 -7 -7 -7 -7 -8 -7 -8 -8 -8 -8 -8 -9 -9 -8 -8 -8 -9 -8 -8 -8 -8
-7 -7 -8 -8 -8 -7 -7 -7 -7 -7 -7 -7 -7 -8 -7 -8 -7 -7 -8 -7 -7 -7 -7 -7 -7 -7 -7 -8 -7 -7 -7 -7 -8 -8 -8 -8 -9 -8 -8 -9 -8 -9 -9 -8 -8 -8 -8 -8 -9
-8 -7 -8 -8 -8 -7 -8 -8 -7 -6 -7 -7 -7 -7 -7 -7 -7 -7 -7 -7 -8 -8 -7 -7 -7 -8 -8 -8 -8 -7 -8 -8 -8 -8 -8 -9 -9 -9 -9 -8 -10 -9 -9 -9 -9 -9 -9 -9 -9
-8 -9 -8 -9 -8 -8 -8 -8 -8 -6 -7 -7 -8 -7 -7 -7 -7 -7 -7 -7 -7 -8 -7 -8 -7 -8 -8 -8 -8 -8 -8 -8 -9 -9 -9 -9 -9 -8 -9 -10 -10 -10 -10 -10 -9 -9 -10 -10 -10
-10 -9 -10 -9 -8 -8 -8 -7 -8 -8 -6 -7 -7 -8 -8 -7 -7 -7 -7 -7 -7 -8 -7 -7 -7 -8 -8 -8 -9 -9 -9 -9 -9 -8 -9 -9 -8 -9 -10 -9 -9 -9 -10 -10 -10 -10 -10 -10 -10
Height
5895 5894 5894 5894 5898 5897 5896 5896 5897 5897 5897 5897 5897 5897 5898 5899 5898 5902 5901 5900 5901 5901 5902 5903 5903 5903 5904 5904 5906 5907 5908 5909 5910 5910 5910 5909 5910 5909 5909 5908 5908 5907 5905 5906 5906 5906 5906 5906 5906
5897 5897 5897 5897 5899 5900 5899 5898 5897 5898 5898 5898 5899 5899 5899 5900 5901 5901 5902 5903 5904 5904 5905 5905 5905 5906 5907 5907 5908 5909 5910 5910 5911 5911 5912 5911 5911 5911 5911 5910 5908 5907 5906 5906 5907 5906 5907 5907 5908
5899 5898 5900 5900 5901 5899 5899 5898 5898 5899 5899 5900 5901 5901 5901 5901 5902 5903 5904 5906 5907 5908 5908 5909 5909 5909 5910 5910 5911 5912 5912 5912 5912 5912 5913 5913 5912 5912 5911 5910 5909 5908 5908 5907 5907 5908 5909 5909 5910
5899 5900 5902 5901 5902 5902 5902 5901 5900 5899 5900 5902 5902 5904 5904 5904 5904 5906 5907 5908 5909 5910 5910 5911 5912 5912 5912 5912 5912 5913 5912 5913 5914 5914 5914 5914 5913 5913 5913 5911 5911 5910 5910 5909 5910 5910 5910 5910 5910
5902 5903 5906 5906 5905 5904 5903 5903 5903 5902 5903 5903 5904 5905 5906 5906 5907 5908 5909 5911 5911 5911 5912 5912 5913 5913 5914 5914 5914 5914 5913 5914 5914 5915 5915 5914 5914 5914 5913 5913 5912 5912 5912 5912 5911 5911 5910 5910 5910
5904 5906 5915 5910 5907 5905 5905 5905 5904 5904 5904 5905 5906 5906 5908 5909 5910 5910 5911 5912 5913 5913 5913 5913 5912 5913 5914 5914 5914 5914 5914 5915 5916 5916 5915 5915 5914 5914 5915 5914 5913 5913 5913 5913 5913 5912 5911 5911 5911
5907 5909 5912 5912 5909 5908 5907 5906 5906 5905 5905 5906 5908 5908 5909 5910 5912 5912 5913 5914 5914 5914 5913 5914 5913 5915 5915 5915 5915 5915 5916 5917 5916 5917 5916 5916 5916 5916 5915 5915 5914 5913 5914 5913 5913 5913 5913 5912 5912
5908 5910 5911 5911 5912 5910 5908 5907 5908 5908 5907 5908 5909 5909 5910 5911 5912 5914 5914 5915 5915 5915 5914 5914 5915 5915 5916 5916 5917 5917 5917 5918 5918 5917 5917 5917 5917 5917 5916 5916 5915 5914 5914 5914 5913 5913 5913 5912 5912
5909 5914 5916 5914 5912 5912 5911 5910 5910 5909 5908 5907 5908 5909 5910 5910 5912 5914 5914 5915 5915 5915 5915 5916 5916 5917 5918 5917 5918 5918 5919 5918 5918 5918 5918 5918 5918 5918 5917 5916 5916 5915 5914 5914 5914 5913 5913 5912 5912
5909 5916 5917 5912 5911 5912 5911 5911 5910 5910 5909 5908 5908 5909 5910 5910 5911 5913 5914 5914 5915 5915 5916 5917 5918 5918 5919 5919 5920 5921 5920 5920 5919 5920 5920 5920 5919 5919 5918 5917 5916 5916 5916 5915 5914 5913 5912 5911 5911
5910 5913 5914 5912 5911 5911 5911 5910 5910 5910 5910 5909 5909 5908 5909 5910 5911 5913 5914 5914 5915 5916 5918 5918 5919 5920 5920 5921 5921 5921 5921 5920 5921 5922 5922 5922 5922 5921 5921 5920 5919 5918 5917 5916 5915 5914 5913 5912 5911
5911 5911 5911 5912 5912 5910 5911 5911 5910 5910 5910 5909 5909 5909 5907 5909 5910 5912 5913 5914 5915 5917 5918 5920 5920 5921 5921 5922 5922 5922 5922 5922 5923 5923 5923 5923 5923 5923 5922 5922 5921 5920 5919 5918 5917 5916 5915 5914 5913
5910 5910 5911 5912 5912 5911 5911 5911 5911 5910 5910 5909 5908 5909 5909 5908 5910 5911 5913 5915 5916 5917 5919 5920 5922 5922 5923 5923 5923 5923 5923 5924 5924 5924 5925 5924 5924 5925 5924 5923 5923 5923 5921 5919 5919 5918 5917 5916 5915
5908 5909 5910 5911 5912 5912 5911 5912 5911 5911 5910 5910 5908 5909 5909 5909 5910 5912 5913 5915 5917 5918 5920 5922 5923 5924 5924 5925 5925 5925 5925 5926 5926 5926 5926 5926 5926 5925 5924 5924 5923 5923 5923 5921 5920 5919 5917 5916 5915
5907 5908 5909 5910 5911 5911 5911 5912 5912 5911 5911 5910 5910 5910 5910 5911 5912 5913 5914 5916 5918 5919 5921 5923 5924 5925 5926 5926 5926 5926 5926 5926 5926 5926 5926 5927 5927 5926 5924 5924 5923 5923 5921 5921 5920 5919 5918 5917 5915
5903 5907 5910 5910 5910 5911 5911 5915 5913 5912 5910 5910 5911 5911 5912 5912 5913 5915 5916 5917 5919 5920 5922 5923 5925 5926 5926 5927 5927 5927 5927 5926 5926 5926 5926 5926 5926 5925 5925 5924 5922 5922 5921 5920 5918 5918 5917 5916 5914
5902 5906 5909 5909 5909 5909 5911 5912 5912 5911 5910 5910 5910 5911 5912 5913 5914 5916 5917 5919 5920 5921 5922 5923 5924 5925 5925 5926 5926 5927 5927 5926 5926 5927 5926 5925 5925 5924 5924 5923 5922 5921 5920 5918 5916 5917 5916 5915 5913
5900 5903 5908 5909 5908 5908 5909 5910 5911 5909 5909 5910 5910 5911 5912 5914 5915 5916 5918 5919 5920 5921 5922 5922 5923 5924 5925 5926 5926 5926 5926 5926 5925 5925 5925 5925 5925 5924 5923 5922 5921 5920 5919 5917 5916 5916 5915 5913 5912
5899 5902 5906 5908 5907 5907 5908 5909 5910 5909 5908 5908 5910 5911 5912 5913 5915 5916 5917 5918 5919 5920 5920 5921 5922 5923 5924 5925 5925 5925 5925 5925 5925 5924 5923 5924 5924 5923 5922 5922 5921 5919 5917 5916 5915 5914 5912 5910 5909
5892 5897 5903 5907 5903 5905 5907 5908 5908 5908 5908 5907 5908 5910 5911 5913 5914 5915 5915 5916 5917 5917 5918 5919 5921 5922 5922 5923 5923 5924 5924 5924 5924 5924 5922 5922 5922 5922 5921 5920 5918 5917 5915 5913 5912 5911 5909 5907 5906
5886 5892 5898 5904 5901 5901 5903 5904 5906 5906 5906 5906 5907 5908 5910 5911 5912 5913 5914 5914 5914 5915 5916 5917 5918 5920 5920 5921 5922 5922 5923 5923 5923 5922 5921 5919 5919 5918 5917 5917 5915 5913 5912 5911 5910 5908 5906 5905 5903
5880 5888 5893 5897 5897 5898 5900 5906 5906 5905 5904 5905 5905 5907 5908 5909 5910 5911 5911 5912 5912 5913 5914 5915 5916 5917 5919 5920 5920 5920 5921 5921 5920 5919 5918 5917 5915 5914 5913 5912 5911 5910 5908 5907 5906 5905 5904 5902 5900
5878 5885 5887 5889 5892 5896 5897 5898 5903 5901 5901 5903 5904 5905 5906 5906 5907 5908 5908 5909 5909 5910 5911 5913 5914 5914 5915 5917 5917 5917 5917 5917 5916 5916 5915 5913 5912 5910 5909 5908 5906 5905 5903 5903 5902 5901 5899 5897 5895
5873 5873 5879 5882 5885 5886 5892 5892 5896 5897 5900 5901 5902 5901 5902 5902 5903 5904 5905 5905 5906 5906 5907 5909 5909 5910 5912 5913 5914 5914 5913 5912 5912 5911 5909 5908 5907 5905 5904 5903 5902 5900 5899 5897 5896 5895 5893 5891 5889
5862 5867 5870 5873 5874 5878 5886 5886 5888 5894 5897 5897 5898 5898 5899 5899 5898 5899 5901 5902 5902 5902 5903 5904 5905 5906 5908 5909 5910 5910 5910 5909 5907 5906 5905 5903 5901 5900 5898 5897 5895 5894 5890 5888 5888 5887 5887 5885 5882
5853 5857 5862 5866 5871 5875 5876 5874 5881 5888 5889 5890 5892 5893 5894 5895 5896 5897 5897 5898 5899 5899 5898 5899 5900 5902 5904 5905 5905 5906 5905 5903 5901 5900 5898 5897 5896 5895 5893 5890 5888 5887 5885 5883 5883 5882 5880 5879 5876
5845 5844 5858 5866 5869 5870 5873 5870 5875 5879 5882 5884 5887 5890 5891 5892 5893 5894 5894 5895 5895 5894 5894 5895 5895 5896 5898 5899 5900 5901 5900 5898 5896 5895 5893 5893 5892 5890 5887 5885 5882 5879 5878 5878 5877 5876 5875 5873 5871
5830 5846 5847 5849 5855 5859 5864 5867 5870 5874 5878 5881 5883 5885 5888 5888 5889 5889 5890 5891 5891 5890 5890 5890 5890 5890 5892 5894 5895 5896 5895 5893 5891 5891 5890 5889 5887 5885 5883 5880 5877 5876 5872 5870 5868 5868 5868 5867 5864
5819 5825 5831 5844 5847 5850 5856 5858 5866 5867 5870 5873 5877 5880 5883 5884 5885 5885 5886 5886 5887 5887 5887 5886 5885 5885 5887 5890 5891 5890 5889 5888 5886 5885 5882 5879 5880 5877 5872 5871 5867 5866 5865 5863 5861 5859 5859 5857 5855
5811 5815 5823 5827 5833 5838 5845 5852 5862 5861 5864 5868 5871 5876 5878 5878 5880 5881 5881 5881 5882 5883 5883 5882 5881 5881 5884 5885 5886 5886 5885 5883 5882 5881 5878 5878 5874 5871 5866 5864 5862 5857 5854 5853 5851 5850 5850 5849 5847
Wind_Speed
12 10 9 11 15 15 14 16 15 16 17 13 11 12 17 20 15 12 12 13 10 15 17 16 17 19 19 22 20 19 17 15 14 15 14 13 11 9 7 8 10 10 9 8 8 10 11 11 10
12 11 7 12 18 15 17 13 11 10 11 11 13 13 18 15 16 13 11 12 11 15 17 16 17 18 19 18 16 14 12 13 13 14 12 10 9 7 5 6 9 9 10 9 8 9 9 9 9
15 11 13 16 13 15 12 13 14 14 11 8 9 13 16 18 16 13 12 12 13 14 15 15 15 15 16 16 13 11 12 12 12 12 8 7 7 8 6 6 8 9 8 8 8 8 8 9 8
15 15 13 17 13 12 12 11 11 13 12 11 11 12 13 13 16 15 13 14 13 13 14 13 12 13 12 12 12 11 12 11 10 8 7 7 7 6 5 6 9 9 7 8 8 7 6 8 7
20 15 16 13 13 11 11 12 10 12 11 12 12 11 12 12 15 15 14 13 12 12 12 12 11 11 11 11 11 11 11 9 9 9 7 6 7 7 5 5 7 8 8 8 6 7 6 5 5
20 20 10 11 13 14 12 8 10 10 10 10 10 12 11 10 11 12 13 11 10 10 8 7 8 10 11 12 12 11 10 9 8 9 9 9 8 8 5 4 4 4 6 7 7 6 5 4 3
20 16 13 11 12 13 14 13 10 12 13 9 9 12 11 9 5 6 10 10 8 5 5 6 8 9 11 11 12 11 11 10 11 12 13 14 11 9 7 6 5 4 4 5 5 4 3 2 2
19 17 13 12 10 12 12 13 13 12 14 12 5 7 12 11 7 4 7 6 3 3 4 7 8 9 11 13 13 12 11 11 11 10 10 10 10 10 10 10 9 10 7 7 7 6 4 3 2
18 13 6 7 10 11 13 12 12 12 14 13 9 5 7 12 9 5 4 4 4 4 6 7 9 12 13 12 12 11 11 10 10 9 9 9 11 11 12 11 11 10 7 6 5 7 6 5 4
16 13 5 10 10 11 11 11 11 11 11 11 10 9 6 11 10 7 6 6 5 4 6 11 13 12 11 11 10 10 10 9 9 9 8 10 11 12 12 12 13 13 13 12 11 10 8 8 8
15 14 7 9 10 9 9 9 9 9 9 11 8 12 11 11 10 6 4 3 4 5 9 11 11 10 9 8 8 8 8 9 8 8 9 10 11 13 14 13 14 14 14 14 13 13 12 12 12
15 12 12 10 10 11 9 8 9 8 7 10 10 5 13 11 11 9 8 9 9 10 11 11 10 9 9 8 7 7 8 8 8 8 8 8 10 12 12 12 13 14 14 14 15 15 14 13 13
16 12 13 12 12 13 11 10 8 8 6 8 11 9 9 13 12 11 12 12 13 13 13 12 10 10 8 7 8 7 8 7 7 6 6 6 8 8 9 10 12 12 12 13 13 12 11 10 11
18 15 15 14 13 13 13 11 11 8 7 7 10 10 9 11 13 12 12 11 12 12 12 11 10 9 8 7 7 7 7 6 5 5 5 5 6 6 7 7 8 8 9 10 11 11 11 11 11
19 14 16 17 17 15 16 12 10 10 10 7 7 8 8 10 12 13 14 14 13 12 10 10 8 6 5 4 5 5 6 7 6 5 5 4 3 4 4 5 6 6 7 8 8 9 10 10 10
19 15 12 19 20 17 17 8 10 9 10 10 7 6 7 8 10 10 11 12 12 11 9 8 7 5 4 2 2 2 2 3 3 3 2 3 4 4 5 4 5 6 7 7 8 11 12 13 12
22 15 15 19 22 20 16 12 10 10 8 8 10 8 6 8 10 10 10 10 10 9 10 9 8 9 7 5 3 4 3 1 2 3 3 2 4 4 5 6 7 9 9 8 9 11 13 14 13
22 20 18 19 20 20 17 15 12 11 11 7 9 10 9 5 7 9 10 10 11 10 10 10 9 9 9 9 7 5 3 2 0 3 3 5 5 7 6 7 9 10 10 11 10 13 13 13 13
20 20 18 23 22 21 19 16 13 12 11 10 7 7 10 9 6 6 7 9 10 11 12 12 11 10 9 8 7 4 4 4 4 6 4 6 7 10 11 11 12 13 14 12 12 13 12 12 13
25 25 22 21 27 26 21 20 19 14 12 11 10 6 6 6 7 7 7 7 10 12 12 12 12 12 12 11 9 8 6 5 6 6 7 7 10 13 15 15 15 15 15 14 13 13 11 11 13
30 28 25 24 29 29 26 25 22 19 17 14 12 9 7 7 9 9 8 9 9 10 12 13 13 13 13 13 10 8 8 8 8 10 11 12 16 22 23 22 19 18 17 17 15 15 14 13 13
35 30 27 28 32 30 30 21 21 20 18 16 13 10 8 8 10 11 11 13 13 13 12 13 13 14 14 12 12 13 13 13 14 15 16 19 24 22 21 21 21 19 18 19 18 18 18 15 15
33 30 37 30 32 29 30 29 23 27 22 15 12 11 9 7 7 12 11 11 12 14 14 14 15 16 16 16 16 17 17 18 20 21 23 26 23 21 20 21 20 19 18 18 18 18 20 18 16
36 35 37 37 33 37 32 32 25 22 14 17 18 18 15 12 11 11 12 10 15 17 17 18 18 19 18 18 18 20 21 21 23 25 22 20 19 19 19 20 21 21 21 19 17 19 20 20 19
45 42 36 38 39 35 33 37 32 23 21 21 19 22 20 21 21 17 14 13 7 14 22 22 23 21 20 20 20 19 19 22 21 21 20 18 18 19 20 22 24 23 21 19 18 20 24 23 21
49 49 41 38 35 33 34 36 30 27 28 24 24 26 22 25 21 15 13 12 10 12 14 18 18 21 22 21 22 22 25 19 19 20 20 21 21 22 25 27 27 28 24 22 22 24 26 25 25
56 59 44 34 33 33 29 36 33 27 29 27 20 26 26 27 23 12 14 12 14 17 14 16 19 21 20 21 25 24 20 17 18 17 18 19 20 23 25 27 28 27 28 25 25 27 29 29 27
64 54 54 48 44 40 35 29 23 27 25 24 23 23 24 24 16 15 16 18 17 11 14 16 16 18 19 19 16 14 11 12 15 18 20 20 25 22 29 30 29 31 32 30 27 27 28 29 27
62 64 62 49 47 43 40 38 29 26 30 31 22 26 25 24 19 19 20 24 22 18 12 14 15 15 14 12 9 9 13 16 17 16 16 25 32 25 37 30 28 29 27 30 32 30 30 29 28
50 56 57 59 60 49 46 38 26 30 32 29 27 21 27 29 28 24 22 26 27 22 14 14 14 12 11 10 9 12 13 12 14 19 21 28 30 38 35 26 41 40 32 37 33 32 35 32 30
Wind_Direction
99 101 117 134 115 116 130 130 127 119 125 133 127 118 113 114 123 121 120 112 114 106 113 120 116 110 115 114 118 113 111 115 118 119 117 120 119 122 117 98 90 86 89 101 109 119 115 124 118
94 99 105 131 110 117 130 136 131 128 131 138 135 131 128 118 119 113 103 106 113 122 120 112 108 109 108 108 110 112 115 119 122 125 127 121 117 123 129 110 97 93 86 93 101 112 124 125 122
95 109 104 116 114 133 145 145 140 129 126 137 149 143 139 132 126 114 117 122 128 127 121 112 105 104 106 107 106 113 117 125 126 127 130 124 126 130 134 104 94 95 94 101 108 118 138 131 124
83 97 95 90 113 115 116 127 130 130 132 129 141 145 137 139 129 132 138 137 135 124 115 113 111 111 112 114 123 128 128 126 128 130 133 121 118 120 105 89 91 92 98 106 113 133 147 134 133
83 97 82 101 110 110 117 117 111 114 127 136 143 130 129 135 134 140 137 132 123 112 105 109 113 119 123 124 117 120 121 126 125 121 115 114 115 125 108 85 79 89 89 91 103 118 132 146 156
86 91 71 93 119 115 109 107 116 112 115 141 151 138 134 136 139 135 126 119 110 98 86 89 112 113 108 110 112 112 112 113 112 96 79 99 111 132 116 92 77 62 78 82 88 96 109 119 155
101 100 112 90 95 103 105 106 114 125 120 119 151 146 141 136 129 132 123 118 110 69 68 87 110 112 109 107 109 103 101 100 95 98 78 88 96 103 90 95 73 80 62 49 46 50 46 63 66
114 113 112 105 86 93 103 105 109 119 126 139 161 178 152 143 141 134 130 127 100 66 84 105 123 120 115 112 107 100 96 96 99 97 86 84 83 77 70 72 67 62 64 50 38 37 22 5 7
130 106 125 118 114 117 118 117 120 124 123 122 135 181 201 161 159 174 169 150 115 103 117 127 131 123 112 104 102 100 99 94 91 88 79 74 70 69 65 58 59 61 61 54 39 41 41 30 9
140 132 179 134 124 129 126 122 120 121 125 124 133 139 176 160 160 183 188 164 140 133 129 124 120 112 105 106 100 97 92 89 83 82 78 72 66 66 68 64 63 61 61 59 58 53 47 40 33
146 141 187 144 137 126 116 123 122 124 122 113 110 144 149 151 145 155 174 174 168 146 128 128 121 115 107 102 97 94 94 90 83 81 77 74 73 73 71 66 60 57 55 53 54 56 51 46 40
161 149 162 164 167 140 131 137 135 130 132 116 108 119 145 155 157 169 185 176 167 154 134 123 116 109 104 96 92 91 94 96 92 86 76 71 68 69 73 67 58 56 58 57 52 52 53 52 44
171 165 168 173 172 152 141 141 141 138 142 132 119 119 146 149 153 153 155 151 151 149 139 132 127 119 111 105 96 88 93 101 102 102 80 75 71 71 67 61 59 54 57 57 53 50 51 48 45
182 176 177 168 161 152 141 136 133 128 139 144 125 125 139 144 148 147 149 153 151 152 149 148 135 125 111 103 100 87 78 87 96 106 97 103 77 66 64 62 56 49 44 42 35 29 27 21 18
192 184 186 167 156 154 142 129 135 126 114 120 124 130 131 141 150 154 155 158 161 161 164 157 144 127 118 112 106 95 75 74 102 111 113 120 61 48 44 27 20 16 19 21 14 1 3 0 353
201 203 199 184 164 159 157 136 140 125 119 118 123 137 134 148 148 151 156 159 162 168 175 178 172 181 171 147 160 145 93 79 91 107 93 63 63 46 34 20 16 8 9 7 358 348 343 342 339
211 207 207 198 177 162 166 155 159 140 115 136 132 140 142 154 165 170 174 176 181 187 193 196 204 215 220 214 240 231 240 220 68 39 37 20 22 21 18 3 359 347 342 347 341 326 325 326 323
206 211 216 195 180 169 173 163 175 162 143 144 149 145 153 154 158 179 188 195 197 202 210 219 226 227 237 247 255 241 230 191 92 327 318 342 353 346 354 346 342 335 330 327 314 305 305 306 312
207 214 207 187 175 166 164 165 176 175 158 148 144 171 162 161 170 175 187 200 210 218 228 238 236 235 244 247 224 226 236 263 259 283 320 322 328 328 328 330 327 324 319 311 300 288 288 298 308
197 202 202 205 180 178 184 184 184 176 170 161 153 146 189 191 190 193 194 205 218 225 232 234 235 235 244 240 227 235 242 258 276 285 289 301 311 313 309 304 305 307 306 300 292 286 283 290 301
192 201 202 209 198 194 195 197 194 186 176 166 167 179 187 206 228 233 233 230 224 233 238 239 237 240 242 234 238 248 255 266 278 286 294 302 307 308 302 298 297 302 304 297 289 290 287 288 291
194 196 204 212 211 210 207 217 218 204 199 188 175 178 194 219 228 234 242 247 244 239 235 235 236 244 251 249 248 256 263 270 277 284 290 297 301 301 299 292 292 295 298 296 291 294 287 282 283
187 198 209 206 219 213 228 223 215 220 203 200 193 185 188 204 254 248 240 252 248 250 246 242 237 237 243 251 258 266 274 281 286 288 290 293 292 294 293 292 289 286 288 292 285 286 284 279 279
202 204 215 214 220 225 221 238 223 229 220 207 211 209 214 213 221 255 259 254 249 249 249 241 243 243 246 253 262 270 277 283 287 290 287 287 290 293 293 291 290 289 288 287 282 280 273 272 277
212 211 211 214 219 224 232 230 225 222 219 221 225 227 226 233 228 229 251 254 277 270 256 255 245 243 248 258 267 273 287 284 284 287 286 285 284 287 292 294 292 289 287 282 278 275 274 274 274
218 217 212 218 221 231 227 230 236 221 210 210 215 220 227 246 258 266 253 268 273 296 276 262 255 251 252 259 265 278 287 277 284 287 290 291 292 294 297 297 295 292 290 287 284 282 279 277 280
221 223 219 224 233 232 237 252 243 216 205 208 213 223 227 247 257 250 270 283 300 300 267 258 255 252 254 261 269 278 269 275 278 286 283 282 290 290 289 291 290 289 287 284 281 280 279 276 282
221 228 222 222 225 234 231 227 234 209 209 205 215 217 234 249 253 262 278 290 295 287 270 261 262 256 249 257 258 260 268 280 296 304 303 310 327 293 304 293 286 288 285 286 283 280 280 276 281
221 221 226 228 230 229 235 237 241 229 202 205 217 225 228 231 237 265 272 271 277 282 278 280 248 232 229 227 237 261 275 286 301 304 315 288 297 299 305 298 288 281 288 284 283 284 283 283 281
224 227 225 227 227 233 239 241 246 242 215 216 221 228 232 240 241 244 259 260 266 280 268 263 233 217 206 223 245 270 278 287 302 330 333 327 330 333 299 300 297 274 284 281 284 287 286 282 283